OE8NDR-11 Weather Reports


Display with metric or nautical units.
time (UTC)temp
F
wind
direction
speed
MPH
gust
MPH
rain 1hr
in
rain 24hr
in
rain mn
in
humidity
%
barometer
mb
20260906231524 83 66 15.0 27.0 0.00 0.00 0.00 37 1020.8
20260906231024 83 63 15.0 24.0 0.00 0.00 0.00 37 1020.8
20260906230524 83 60 16.0 24.0 0.00 0.00 0.00 37 1020.8
20260906230024 83 60 17.0 25.0 0.00 0.00 0.00 37 1020.8
20260906225524 83 74 16.0 25.0 0.00 0.00 0.00 37 1020.8
20260906225024 83 66 15.0 25.0 0.00 0.00 0.00 37 1020.9
20260906224524 83 63 15.0 23.0 0.00 0.00 0.00 38 1020.9
20260906224024 83 56 15.0 25.0 0.00 0.00 0.00 38 1020.9
20260906223524 83 70 15.0 24.0 0.00 0.00 0.00 38 1020.9
20260906223024 83 88 14.0 22.0 0.00 0.00 0.00 38 1021.0
20260906222524 83 53 13.0 24.0 0.00 0.00 0.00 38 1020.9
20260906222024 83 75 13.0 19.0 0.00 0.00 0.00 38 1020.9
20260906221524 83 82 14.0 22.0 0.00 0.00 0.00 38 1020.8
20260906221024 83 90 13.0 21.0 0.00 0.00 0.00 38 1020.8
20260906220524 83 46 14.0 20.0 0.00 0.00 0.00 37 1020.7
20260906220024 84 57 14.0 22.0 0.00 0.00 0.00 37 1020.7
20260906215524 84 73 15.0 26.0 0.00 0.00 0.00 37 1020.8
20260906215024 84 42 15.0 22.0 0.00 0.00 0.00 37 1020.6
20260906214524 84 60 14.0 22.0 0.00 0.00 0.00 37 1020.6
20260906214024 84 65 14.0 20.0 0.00 0.00 0.00 36 1020.7
20260906213524 85 75 14.0 19.0 0.00 0.00 0.00 36 1020.6
20260906213024 85 65 15.0 24.0 0.00 0.00 0.00 36 1020.6
20260906212524 85 56 14.0 23.0 0.00 0.00 0.00 36 1020.6
20260906212025 85 67 13.0 21.0 0.00 0.00 0.00 36 1020.5
20260906211524 85 45 15.0 22.0 0.00 0.00 0.00 36 1020.4
20260906211024 85 49 14.0 20.0 0.00 0.00 0.00 36 1020.4
20260906210524 85 71 13.0 22.0 0.00 0.00 0.00 36 1020.4
20260906210024 85 63 13.0 20.0 0.00 0.00 0.00 36 1020.4
20260906205525 85 55 14.0 19.0 0.00 0.00 0.00 35 1020.4
20260906205025 86 67 15.0 20.0 0.00 0.00 0.00 35 1020.3
20260906204525 86 62 12.0 26.0 0.00 0.00 0.00 35 1020.4
20260906204024 85 51 10.0 16.0 0.00 0.00 0.00 36 1020.4
20260906203524 86 42 10.0 15.0 0.00 0.00 0.00 36 1020.4
20260906203025 86 50 9.0 15.0 0.00 0.00 0.00 35 1020.4
20260906202525 86 100 11.0 14.0 0.00 0.00 0.00 35 1020.3
20260906202025 86 61 10.0 19.0 0.00 0.00 0.00 35 1020.3
20260906201525 86 86 10.0 14.0 0.00 0.00 0.00 35 1020.2
20260906201025 86 61 11.0 16.0 0.00 0.00 0.00 35 1020.2
20260906200525 86 69 10.0 19.0 0.00 0.00 0.00 35 1020.1
20260906200025 86 76 9.0 13.0 0.00 0.00 0.00 36 1020.1
20260906195525 86 61 11.0 15.0 0.00 0.00 0.00 35 1020.0
20260906195025 86 65 11.0 18.0 0.00 0.00 0.00 35 1020.0
20260906194525 86 73 10.0 18.0 0.00 0.00 0.00 35 1020.1
20260906194025 86 91 8.0 14.0 0.00 0.00 0.00 35 1020.0
20260906193525 86 81 8.0 16.0 0.00 0.00 0.00 35 1020.0
20260906193025 87 76 8.0 13.0 0.00 0.00 0.00 35 1019.9
20260906192525 87 61 9.0 13.0 0.00 0.00 0.00 35 1019.9
20260906192025 87 80 9.0 15.0 0.00 0.00 0.00 35 1019.8
20260906191525 87 76 8.0 13.0 0.00 0.00 0.00 35 1019.8
20260906191025 87 65 8.0 13.0 0.00 0.00 0.00 35 1019.9
20260906190525 87 76 7.0 12.0 0.00 0.00 0.00 35 1019.9
20260906190025 87 61 7.0 10.0 0.00 0.00 0.00 35 1019.7
20260906185525 87 77 7.0 13.0 0.00 0.00 0.00 35 1019.8
20260906185025 87 70 7.0 12.0 0.00 0.00 0.00 35 1019.7
20260906184525 87 55 6.0 10.0 0.00 0.00 0.00 35 1019.7
20260906184025 87 76 6.0 9.0 0.00 0.00 0.00 35 1019.7
20260906183525 87 81 6.0 11.0 0.00 0.00 0.00 35 1019.7
20260906183025 86 78 5.0 7.0 0.00 0.00 0.00 36 1019.6
20260906182525 86 67 3.0 11.0 0.00 0.00 0.00 36 1019.6
20260906182025 86 93 1.0 7.0 0.00 0.00 0.00 37 1019.4
20260906181525 86 88 1.0 3.0 0.00 0.00 0.00 38 1019.3
20260906181025 86 330 2.0 3.0 0.00 0.00 0.00 37 1019.3
20260906180525 86 331 1.0 4.0 0.00 0.00 0.00 37 1019.2
20260906180025 86 17 2.0 2.0 0.00 0.00 0.00 37 1019.1
20260906175525 87 19 3.0 5.0 0.00 0.00 0.00 36 1019.0
20260906175025 87 18 1.0 5.0 0.00 0.00 0.00 36 1019.4
20260906174525 87 80 1.0 4.0 0.00 0.00 0.00 36 1018.9
20260906174025 87 255 1.0 3.0 0.00 0.00 0.00 36 1018.8
20260906173525 87 117 1.0 2.0 0.00 0.00 0.00 36 1018.7
20260906173025 87 105 1.0 2.0 0.00 0.00 0.00 36 1018.7
20260906172525 88 103 2.0 3.0 0.00 0.00 0.00 36 1018.5
20260906172025 88 96 2.0 3.0 0.00 0.00 0.00 35 1018.5
20260906171525 88 77 3.0 4.0 0.00 0.00 0.00 34 1018.4
20260906171032 89 78 5.0 5.0 0.00 0.00 0.00 34 1018.5
20260906170525 89 67 6.0 10.0 0.00 0.00 0.00 34 1018.4
20260906170029 89 44 6.0 9.0 0.00 0.00 0.00 33 1018.3
20260906165551 89 55 7.0 12.0 0.00 0.00 0.00 33 1018.3
20260906165025 90 76 8.0 13.0 0.00 0.00 0.00 33 1018.3
20260906164525 90 49 8.0 13.0 0.00 0.00 0.00 33 1018.2
20260906164039 90 40 7.0 12.0 0.00 0.00 0.00 33 1018.2
20260906163529 90 60 9.0 12.0 0.00 0.00 0.00 33 1018.1
20260906163033 91 49 9.0 14.0 0.00 0.00 0.00 33 1018.1
20260906162616 91 28 9.0 13.0 0.00 0.00 0.00 32 1018.0
20260906162027 91 61 9.0 15.0 0.00 0.00 0.00 32 1018.0
20260906161525 91 77 9.0 16.0 0.00 0.00 0.00 32 1018.1
20260906161025 91 63 8.0 14.0 0.00 0.00 0.00 33 1018.1
20260906160525 91 63 8.0 13.0 0.00 0.00 0.00 32 1018.1
20260906160025 92 46 7.0 11.0 0.00 0.00 0.00 32 1018.1
20260906155525 92 34 7.0 12.0 0.00 0.00 0.00 32 1018.1
20260906155025 92 36 7.0 12.0 0.00 0.00 0.00 33 1018.1
20260906154525 92 28 7.0 10.0 0.00 0.00 0.00 32 1018.0
20260906154025 92 17 6.0 14.0 0.00 0.00 0.00 33 1017.9
20260906153525 92 63 6.0 11.0 0.00 0.00 0.00 33 1017.9
20260906153025 93 67 6.0 11.0 0.00 0.00 0.00 33 1017.9
20260906152525 93 40 6.0 11.0 0.00 0.00 0.00 33 1017.9
20260906152025 93 76 6.0 12.0 0.00 0.00 0.00 32 1017.9
20260906151525 93 23 5.0 14.0 0.00 0.00 0.00 32 1017.8
20260906151025 93 62 5.0 8.0 0.00 0.00 0.00 33 1017.8
20260906150525 93 38 7.0 12.0 0.00 0.00 0.00 32 1017.8
20260906150025 93 38 8.0 14.0 0.00 0.00 0.00 32 1017.8
20260906145525 93 32 7.0 13.0 0.00 0.00 0.00 32 1017.8
20260906145025 93 42 8.0 14.0 0.00 0.00 0.00 31 1017.8
20260906144525 93 59 8.0 15.0 0.00 0.00 0.00 33 1017.8
20260906144025 93 32 8.0 15.0 0.00 0.00 0.00 31 1017.8
20260906143525 93 78 7.0 14.0 0.00 0.00 0.00 31 1017.8
20260906143025 94 86 6.0 11.0 0.00 0.00 0.00 33 1017.8
20260906142525 94 51 6.0 10.0 0.00 0.00 0.00 33 1017.9
20260906142025 94 36 6.0 12.0 0.00 0.00 0.00 32 1017.8
20260906141525 94 79 7.0 12.0 0.00 0.00 0.00 32 1017.8
20260906141025 93 27 8.0 14.0 0.00 0.00 0.00 33 1017.9
20260906140526 93 22 7.0 13.0 0.00 0.00 0.00 33 1017.9
20260906140025 93 33 6.0 15.0 0.00 0.00 0.00 32 1017.9
20260906135525 93 33 6.0 14.0 0.00 0.00 0.00 34 1017.9
20260906135025 94 342 7.0 13.0 0.00 0.00 0.00 32 1017.8
20260906134525 93 76 6.0 13.0 0.00 0.00 0.00 31 1017.9
20260906134025 93 57 7.0 13.0 0.00 0.00 0.00 34 1017.9
20260906133525 93 0 7.0 13.0 0.00 0.00 0.00 33 1017.9
20260906133025 93 27 8.0 11.0 0.00 0.00 0.00 34 1017.8
20260906132525 93 42 10.0 17.0 0.00 0.00 0.00 32 1017.9
20260906132025 93 55 10.0 14.0 0.00 0.00 0.00 31 1017.8
20260906131525 93 64 7.0 14.0 0.00 0.00 0.00 31 1017.9
20260906131025 93 58 7.0 12.0 0.00 0.00 0.00 32 1018.0
20260906130525 93 80 10.0 14.0 0.00 0.00 0.00 32 1017.9
20260906130025 93 71 11.0 16.0 0.00 0.00 0.00 32 1018.0
20260906125525 93 68 11.0 17.0 0.00 0.00 0.00 32 1018.1
20260906125025 93 71 9.0 15.0 0.00 0.00 0.00 32 1018.3
20260906124525 92 65 10.0 14.0 0.00 0.00 0.00 33 1018.3
20260906124025 92 34 11.0 19.0 0.00 0.00 0.00 33 1018.2
20260906123525 92 90 13.0 17.0 0.00 0.00 0.00 33 1018.3
20260906123025 92 72 14.0 18.0 0.00 0.00 0.00 32 1018.4
20260906122525 92 63 13.0 18.0 0.00 0.00 0.00 32 1018.4
20260906122025 92 68 12.0 18.0 0.00 0.00 0.00 33 1018.6
20260906121525 92 55 13.0 18.0 0.00 0.00 0.00 34 1018.6
20260906121025 92 54 13.0 21.0 0.00 0.00 0.00 34 1018.6
20260906120525 92 62 12.0 20.0 0.00 0.00 0.00 33 1018.8
20260906120025 92 57 12.0 19.0 0.00 0.00 0.00 33 1018.7
20260906115525 92 58 13.0 21.0 0.00 0.00 0.00 34 1018.8
20260906115026 91 66 14.0 21.0 0.00 0.00 0.00 34 1018.8
20260906114525 92 78 15.0 22.0 0.00 0.00 0.00 34 1018.8
20260906114025 91 75 15.0 21.0 0.00 0.00 0.00 33 1018.7
20260906113526 91 63 14.0 22.0 0.00 0.00 0.00 34 1018.9
20260906113026 91 63 13.0 21.0 0.00 0.00 0.00 34 1018.8
20260906112525 91 66 12.0 20.0 0.00 0.00 0.00 34 1018.9
20260906112026 91 68 14.0 21.0 0.00 0.00 0.00 34 1019.0
20260906111526 91 14 16.0 27.0 0.00 0.00 0.00 35 1018.9
20260906111025 91 59 15.0 23.0 0.00 0.00 0.00 34 1018.9
20260906110526 91 62 15.0 24.0 0.00 0.00 0.00 35 1019.0
20260906110026 90 65 14.0 23.0 0.00 0.00 0.00 35 1018.9
20260906105526 91 34 13.0 20.0 0.00 0.00 0.00 34 1019.1
20260906105026 90 72 14.0 24.0 0.00 0.00 0.00 35 1019.1
20260906104526 90 63 15.0 23.0 0.00 0.00 0.00 34 1019.1
20260906104026 90 77 17.0 23.0 0.00 0.00 0.00 34 1019.2
20260906103526 90 78 16.0 24.0 0.00 0.00 0.00 36 1019.1
20260906103026 90 40 14.0 27.0 0.00 0.00 0.00 34 1019.2
20260906102526 90 56 13.0 20.0 0.00 0.00 0.00 35 1019.2
20260906102026 90 65 13.0 20.0 0.00 0.00 0.00 34 1019.1
20260906101526 90 57 13.0 22.0 0.00 0.00 0.00 35 1019.2
20260906101026 89 80 15.0 21.0 0.00 0.00 0.00 34 1019.2
20260906100526 89 63 15.0 24.0 0.00 0.00 0.00 35 1019.5
20260906100026 89 48 13.0 24.0 0.00 0.00 0.00 35 1019.6
20260906095526 89 45 16.0 22.0 0.00 0.00 0.00 34 1019.6
20260906095026 89 84 17.0 23.0 0.00 0.00 0.00 35 1019.6
20260906094526 89 62 17.0 25.0 0.00 0.00 0.00 34 1019.6
20260906094026 89 32 16.0 23.0 0.00 0.00 0.00 36 1019.8
20260906093526 89 70 13.0 26.0 0.00 0.00 0.00 35 1019.7
20260906093026 89 35 13.0 17.0 0.00 0.00 0.00 37 1019.7
20260906092526 88 37 14.0 20.0 0.00 0.00 0.00 35 1019.8
20260906092026 88 46 13.0 20.0 0.00 0.00 0.00 36 1019.8
20260906091526 88 20 14.0 23.0 0.00 0.00 0.00 36 1019.8
20260906091026 88 77 13.0 23.0 0.00 0.00 0.00 36 1019.9
20260906090526 88 55 13.0 19.0 0.00 0.00 0.00 37 1019.8
20260906090026 88 86 12.0 20.0 0.00 0.00 0.00 37 1019.8
20260906085526 88 71 12.0 20.0 0.00 0.00 0.00 38 1019.8
20260906085026 88 81 11.0 19.0 0.00 0.00 0.00 37 1019.8
20260906084526 87 32 11.0 17.0 0.00 0.00 0.00 38 1019.8
20260906084026 87 55 12.0 18.0 0.00 0.00 0.00 37 1019.8
20260906083526 87 42 14.0 18.0 0.00 0.00 0.00 37 1019.9
20260906083026 87 84 14.0 22.0 0.00 0.00 0.00 37 1020.0
20260906082526 87 62 12.0 21.0 0.00 0.00 0.00 37 1020.0
20260906082026 86 78 13.0 19.0 0.00 0.00 0.00 38 1020.0
20260906081526 86 46 13.0 19.0 0.00 0.00 0.00 38 1020.0
20260906081026 86 65 15.0 23.0 0.00 0.00 0.00 38 1020.1
20260906080526 86 56 13.0 25.0 0.00 0.00 0.00 38 1020.0
20260906080026 86 69 12.0 22.0 0.00 0.00 0.00 38 1020.1
20260906075526 86 60 12.0 20.0 0.00 0.00 0.00 39 1020.0
20260906075026 86 52 11.0 18.0 0.00 0.00 0.00 39 1019.9
20260906074526 86 63 11.0 20.0 0.00 0.00 0.00 40 1020.0
20260906074026 85 61 10.0 18.0 0.00 0.00 0.00 40 1019.9
20260906073526 85 46 9.0 15.0 0.00 0.00 0.00 41 1020.0
20260906073026 85 40 10.0 17.0 0.00 0.00 0.00 40 1019.8
20260906072526 85 40 9.0 14.0 0.00 0.00 0.00 41 1019.8
20260906072026 85 67 9.0 14.0 0.00 0.00 0.00 41 1019.8
20260906071526 84 58 11.0 19.0 0.00 0.00 0.00 42 1019.7
20260906071026 84 76 9.0 16.0 0.00 0.00 0.00 44 1019.8
20260906070526 84 64 6.0 12.0 0.00 0.00 0.00 44 1019.7
20260906070026 84 59 4.0 12.0 0.00 0.00 0.00 45 1019.7
20260906065526 83 30 2.0 5.0 0.00 0.00 0.00 49 1019.7
20260906065026 82 91 1.0 5.0 0.00 0.00 0.00 54 1019.8
20260906064526 82 344 1.0 3.0 0.00 0.00 0.00 61 1019.6
20260906064026 81 323 3.0 4.0 0.00 0.00 0.00 62 1019.6
20260906063526 80 355 3.0 6.0 0.00 0.00 0.00 61 1019.6
20260906063026 80 355 1.0 8.0 0.00 0.00 0.00 65 1019.6
20260906062526 79 355 1.0 4.0 0.00 0.00 0.00 68 1019.6
20260906062026 78 19 2.0 5.0 0.00 0.00 0.00 70 1019.5
20260906061526 77 348 2.0 4.0 0.00 0.00 0.00 71 1019.5
20260906061026 77 335 2.0 3.0 0.00 0.00 0.00 71 1019.6
20260906060526 76 330 2.0 4.0 0.00 0.00 0.00 72 1019.6
20260906060026 75 332 2.0 4.0 0.00 0.00 0.00 71 1019.6
20260906055526 75 312 3.0 4.0 0.00 0.00 0.00 71 1019.5
20260906055026 74 315 3.0 4.0 0.00 0.00 0.00 71 1019.4
20260906054526 74 327 2.0 4.0 0.00 0.00 0.00 70 1019.4
20260906054026 74 0 2.0 4.0 0.00 0.00 0.00 69 1019.3
20260906053526 73 355 2.0 3.0 0.00 0.00 0.00 68 1019.2
20260906053026 73 0 2.0 4.0 0.00 0.00 0.00 68 1019.2
20260906052526 73 5 2.0 4.0 0.00 0.00 0.00 69 1019.1
20260906052026 72 326 2.0 3.0 0.00 0.00 0.00 68 1019.0
20260906051526 71 307 2.0 2.0 0.00 0.00 0.00 69 1019.0
20260906051026 71 306 2.0 3.0 0.00 0.00 0.00 69 1019.1
20260906050526 70 306 2.0 3.0 0.00 0.00 0.00 70 1019.0
20260906045526 69 306 2.0 3.0 0.00 0.00 0.00 71 1019.0
20260906045026 69 306 1.0 3.0 0.00 0.00 0.00 71 1018.9
20260906044526 69 306 2.0 3.0 0.00 0.00 0.00 70 1018.9
20260906044026 69 305 3.0 4.0 0.00 0.00 0.00 70 1018.8
20260906043526 70 299 3.0 4.0 0.00 0.00 0.00 70 1018.8
20260906043026 70 282 2.0 4.0 0.00 0.00 0.00 70 1018.8
20260906042526 69 279 2.0 4.0 0.00 0.00 0.00 71 1018.7
20260906042026 68 276 3.0 4.0 0.00 0.00 0.00 74 1018.6
20260906041526 68 277 3.0 4.0 0.00 0.00 0.00 74 1018.6
20260906041026 67 272 2.0 4.0 0.00 0.00 0.00 76 1018.7
20260906040526 67 289 2.0 3.0 0.00 0.00 0.00 77 1018.5
20260906040026 67 319 3.0 3.0 0.00 0.00 0.00 77 1018.5
20260906035526 67 319 2.0 4.0 0.00 0.00 0.00 77 1018.5
20260906035026 68 300 1.0 4.0 0.00 0.00 0.00 77 1018.4
20260906034526 68 281 2.0 3.0 0.00 0.00 0.00 76 1018.4
20260906034026 68 283 2.0 3.0 0.00 0.00 0.00 76 1018.4
20260906033526 67 286 3.0 3.0 0.00 0.00 0.00 77 1018.2
20260906033026 67 286 4.0 4.0 0.00 0.00 0.00 79 1018.3
20260906032526 67 285 4.0 6.0 0.00 0.00 0.00 80 1018.3
20260906032026 66 277 3.0 6.0 0.00 0.00 0.00 80 1018.3
20260906031526 66 279 3.0 6.0 0.00 0.00 0.00 80 1018.3
20260906031026 66 298 3.0 5.0 0.00 0.00 0.00 79 1018.4
20260906030526 66 294 3.0 4.0 0.00 0.00 0.00 79 1018.2
20260906030026 66 34 2.0 4.0 0.00 0.00 0.00 79 1018.3
20260906025526 66 44 2.0 3.0 0.00 0.00 0.00 79 1018.2
20260906025026 67 44 2.0 4.0 0.00 0.00 0.00 80 1018.3
20260906024526 67 200 0.0 2.0 0.00 0.00 0.00 80 1018.2
20260906024026 67 199 0.0 2.0 0.00 0.00 0.00 80 1018.2
20260906023526 67 199 0.0 0.0 0.00 0.00 0.00 79 1018.1
20260906023026 67 199 2.0 2.0 0.00 0.00 0.00 79 1018.2
20260906022526 68 199 2.0 7.0 0.00 0.00 0.00 78 1018.0
20260906022026 68 32 2.0 3.0 0.00 0.00 0.00 78 1018.1
20260906021527 68 32 2.0 2.0 0.00 0.00 0.00 80 1018.1
20260906021027 67 32 3.0 3.0 0.00 0.00 0.00 80 1018.1
20260906020527 67 32 3.0 7.0 0.00 0.00 0.00 79 1018.2
20260906020027 68 36 2.0 6.0 0.00 0.00 0.00 79 1018.2
20260906015526 68 141 2.0 2.0 0.00 0.00 0.00 79 1018.0
20260906015027 68 141 3.0 4.0 0.00 0.00 0.00 79 1018.1
20260906014527 68 123 2.0 4.0 0.00 0.00 0.00 79 1018.2
20260906014027 68 84 1.0 3.0 0.00 0.00 0.00 79 1018.2
20260906013527 67 77 0.0 0.0 0.00 0.00 0.00 79 1018.2
20260906013027 68 77 0.0 0.0 0.00 0.00 0.00 79 1018.3
20260906012527 68 77 0.0 0.0 0.00 0.00 0.00 79 1018.3
20260906012027 68 77 2.0 2.0 0.00 0.00 0.00 79 1018.3
20260906011527 68 77 3.0 3.0 0.00 0.00 0.00 78 1018.3
20260906011027 68 76 3.0 3.0 0.00 0.00 0.00 78 1018.3
20260906010527 68 76 3.0 3.0 0.00 0.00 0.00 79 1018.3
20260906010041 68 76 3.0 4.0 0.00 0.00 0.00 80 1018.2
20260906005527 68 65 2.0 4.0 0.00 0.00 0.00 80 1018.2
20260906005027 68 49 2.0 3.0 0.00 0.00 0.00 79 1018.2
20260906004527 69 48 1.0 3.0 0.00 0.00 0.00 78 1018.2
20260906004027 70 38 0.0 2.0 0.00 0.00 0.00 76 1018.1
20260906003527 70 38 1.0 1.0 0.00 0.00 0.00 76 1018.1
20260906003027 69 38 2.0 2.0 0.00 0.00 0.00 77 1018.0
20260906002527 69 38 3.0 3.0 0.00 0.00 0.00 80 1018.1
20260906002027 68 38 3.0 4.0 0.00 0.00 0.00 79 1018.1
20260906001527 68 32 2.0 4.0 0.00 0.00 0.00 78 1018.1
20260906001027 69 33 1.0 3.0 0.00 0.00 0.00 78 1018.1
20260906000527 70 146 1.0 1.0 0.00 0.00 0.00 78 1018.1
20260906000027 70 146 2.0 3.0 0.00 0.00 0.00 78 1018.1
20260905235527 70 146 3.0 3.0 0.00 0.00 0.00 78 1018.1
20260905235027 70 146 3.0 4.0 0.00 0.00 0.00 76 1018.1
20260905234527 71 144 3.0 6.0 0.00 0.00 0.00 74 1018.3
20260905234027 73 173 2.0 6.0 0.00 0.00 0.00 72 1018.1
20260905233527 75 339 2.0 2.0 0.00 0.00 0.00 73 1018.0
20260905233027 76 339 2.0 3.0 0.00 0.00 0.00 73 1018.0
20260905232527 75 339 3.0 3.0 0.00 0.00 0.00 70 1018.1
20260905232027 74 340 2.0 4.0 0.00 0.00 0.00 65 1018.1